Flag for Cambodia

Past Weather in 11°33'54.7"N, 104°55'16.4"E, Cambodia — Yesterday and Last 2 Weeks

Currently: 90 °F. Scattered clouds. (Weather station: Phnom-Penh / Pochentong, Cambodia). See more current weather

Past Weather in 11°33'54.7"N, 104°55'16.4"E — Graph

°F

11°33'54.7"N, 104°55'16.4"E Temperature Yesterday

Maximum temperature yesterday: 91 °F (at 12:30 pm)
Minimum temperature yesterday: 77 °F (at 2:30 pm)
Average temperature yesterday: 82 °F

High & Low Weather Summary for the Past Weeks

 TemperatureHumidityPressure
High97 °F (Jul 2, 2:30 pm)100% (Jun 30, 7:00 pm)29.86 "Hg (Jun 30, 7:00 pm)
Low77 °F (Jul 3, 6:00 pm)47% (Jul 2, 2:30 pm)29.59 "Hg (Jul 2, 3:00 pm)
Average84 °F83%29.72 "Hg
* Reported Jun 30 11:00 am — Jul 15 11:30 am, 11°33'54.7"N, 104°55'16.4"E. Weather by CustomWeather, © 2024

Note: Actual official high and low records may vary slightly from our data, if they occured in-between our weather recording intervals... More about our weather records

11°33'54.7"N, 104°55'16.4"E Weather History for the Previous 24 Hours

Scroll right to see more
 ConditionsComfort  
Time TempWeatherWind HumidityBarometerVisibility
11:30 am
Mon, Jul 15
90 °FScattered clouds.5 mph63%29.68 "HgN/A
11:00 am90 °FScattered clouds.6 mph63%29.68 "HgN/A
10:30 am88 °FScattered clouds.8 mph66%29.68 "HgN/A
10:00 am86 °FScattered clouds.3 mph70%29.68 "HgN/A
9:30 am84 °FScattered clouds.3 mph74%29.68 "HgN/A
8:30 am82 °FScattered clouds.5 mph79%29.68 "HgN/A
8:00 am82 °FScattered clouds.3 mph79%29.68 "HgN/A
7:30 am82 °FBroken clouds.2 mph79%29.68 "Hg6 mi
7:00 am82 °FBroken clouds.2 mph79%29.68 "Hg6 mi
6:30 am81 °FBroken clouds.1 mph84%29.68 "Hg6 mi
6:00 am81 °FBroken clouds.2 mph84%29.65 "Hg6 mi
5:30 am81 °FPartly cloudy.2 mph84%29.65 "Hg6 mi
5:00 am81 °FPartly cloudy.6 mph84%29.65 "Hg6 mi
4:30 am81 °FPartly cloudy.6 mph84%29.62 "Hg6 mi
4:00 am82 °FPartly cloudy.7 mph79%29.62 "Hg6 mi
3:30 am82 °FPartly cloudy.10 mph79%29.62 "Hg6 mi
3:00 am81 °FPartly cloudy.7 mph89%29.62 "Hg6 mi
2:30 am81 °FPartly cloudy.7 mph89%29.62 "Hg6 mi
2:00 am81 °FPartly cloudy.7 mph89%29.62 "Hg6 mi
1:30 am81 °FPartly cloudy.8 mph89%29.62 "Hg6 mi
1:00 am81 °FPartly cloudy.7 mph89%29.65 "Hg6 mi
12:30 am81 °FPartly cloudy.7 mph89%29.65 "Hg6 mi
12:00 am81 °FPartly cloudy.8 mph89%29.65 "Hg6 mi
11:30 pm
Sun, Jul 14
81 °FPartly cloudy.7 mph89%29.68 "Hg6 mi
11:00 pm82 °FPartly cloudy.8 mph84%29.68 "Hg6 mi
10:30 pm82 °FPartly cloudy.10 mph84%29.68 "Hg6 mi
10:00 pm82 °FPartly cloudy.10 mph84%29.68 "Hg6 mi
9:30 pm84 °FPartly cloudy.12 mph79%29.68 "Hg6 mi
9:00 pm84 °FPartly cloudy.9 mph79%29.68 "Hg6 mi
8:30 pm84 °FPartly cloudy.9 mph79%29.68 "Hg6 mi
7:30 pm82 °FPartly cloudy.8 mph89%29.65 "Hg6 mi
7:00 pm82 °FPartly cloudy.6 mph94%29.65 "Hg6 mi
6:30 pm81 °FPartly cloudy.6 mph100%29.62 "Hg6 mi
6:00 pm81 °FBroken clouds.8 mph100%29.62 "Hg6 mi
5:30 pm81 °FBroken clouds.8 mph94%29.62 "Hg6 mi
5:00 pm81 °FBroken clouds.7 mph94%29.62 "Hg6 mi
4:30 pm81 °FBroken clouds.3 mph94%29.62 "Hg6 mi
4:00 pm81 °FBroken clouds.9 mph94%29.62 "Hg6 mi
3:30 pm81 °FLight rain. Broken clouds.9 mph94%29.62 "Hg6 mi
3:00 pm79 °FLight rain. Broken clouds.8 mph100%29.62 "Hg6 mi
2:30 pm77 °FThunderstorms. Broken clouds.16 mph100%29.62 "Hg3 mi
2:00 pm82 °FThunderstorms. Broken clouds.15 mph84%29.65 "Hg3 mi
1:30 pm90 °FScattered showers. Broken clouds.5 mph67%29.62 "Hg6 mi
1:00 pm90 °FBroken clouds.9 mph63%29.65 "HgN/A
12:30 pm91 °FBroken clouds.9 mph59%29.65 "HgN/A
12:00 pm90 °FBroken clouds.10 mph63%29.65 "HgN/A
Weather by CustomWeather, © 2024

See weather overview